Location: Newark
(50.0306°N, 2.3272°E)
Time: 19:41:32
(UTC+00:00)

Vanguard 1 Rocket - Pass Details

Date: 13 December 2019
Orbit: 650 x 4226 km, 34.3° (Epoch: 17 January)

Event Time Altitude Azimuth Distance (km) Brightness Sun altitude
Rises 17:35:14 0° 200° (SSW) 8,432 12.9 -16.1°
Reaches altitude 10° 17:43:39 10° 188° (S) 7,166 12.2 -17.4°
Maximum altitude 17:58:19 22° 149° (SSE) 5,288 11.1 -19.6°
Enters shadow 18:06:55 14° 115° (ESE) 5,047 10.7 -21.0°
Drops below altitude 10° 18:09:01 10° 107° (ESE) 5,158 - -21.3°
Sets 18:13:31 0° 93° (E) 5,625 - -22.0°
